Location: Favalello
(42.2939°N, 9.2706°E)
Time: 08:59:39
(UTC+00:00)

Cosmos 2278 Rocket - Pass Details

Date: 06 December 2019
Orbit: 843 x 844 km, 71.0° (Epoch: 19 January)

Event Time Altitude Azimuth Distance (km) Brightness Sun altitude
Rises 18:04:37 0° 330° (NNW) 3,409 5.6 -24.1°
Reaches altitude 10° 18:07:08 10° 325° (NW) 2,470 4.9 -24.5°
Maximum altitude 18:12:34 49° 252° (WSW) 1,075 3.1 -25.5°
Drops below altitude 10° 18:17:58 10° 179° (S) 2,453 4.7 -26.5°
Sets 18:20:28 0° 174° (S) 3,383 5.4 -27.0°
